Weather History for Salida, CO

Change the Weather History Date:

Wednesday, January 2, 2013

  Actual Average (KGUC) Record (KGUC)
Temperature  
Mean Temperature 14 °F -  
Max Temperature 28 °F 24 °F 44 °F (1998)
Min Temperature 1 °F 0 °F -25 °F (2008)
Degree Days  
Heating Degree Days 50    
Moisture  
Dew Point -2 °F    
Average Humidity 55    
Maximum Humidity 73    
Minimum Humidity 28    
Precipitation  
Precipitation 0.00 in - - ()
Sea Level Pressure  
Sea Level Pressure 30.20 in    
Wind  
Wind Speed 4 mph (WNW)    
Max Wind Speed 12 mph    
Max Gust Speed 16 mph    
Visibility 10 miles    
Events      
Averages and records for this station are not official NWS values.
T = Trace of Precipitation, MM = Missing Value Source: NWS Daily Summary

Daily Weather History Graph

Daily Weather History Graph

Search for Another Location

Airport:

Trip Planner

Search our weather history database for the weather conditions in past years. The results will help you decide how hot, cold, wet, or windy it might be!

Date:

Astronomy

Jan. 02, 2013 Rise Set
Actual Time 7:21 AM MST 4:55 PM MST
Civil Twilight 6:52 AM MST 5:24 PM MST
Nautical Twilight 6:19 AM MST 5:57 PM MST
Astronomical Twilight 5:47 AM MST 6:30 PM MST
Moon 10:25 PM MST (1/2) 10:09 AM MST (1/2)
Length of Visible Light 10h 32m
Length of Day
9h 33m
Waning Gibbous, 74% of the Moon is Illuminated
Jan 2
Waning Gibbous
Jan 4
Last Quarter
Jan 11
New
Jan 18
First Quarter
Jan 26
Full

Hourly Weather History & Observations

Time (MST) Temp. Windchill Dew Point Humidity Pressure Visibility Wind Dir Wind Speed Gust Speed Precip Events Conditions
12:15 AM 7.9 °F -2.2 °F -2.2 °F 64% 30.20 in 10.0 mi NW 5.8 mph - N/A   Clear
12:35 AM 9.3 °F 1.0 °F -1.8 °F 61% 30.20 in 10.0 mi WSW 4.6 mph - N/A   Clear
12:55 AM 6.6 °F - -2.7 °F 66% 30.20 in 10.0 mi Calm Calm - N/A   Clear
1:15 AM 5.4 °F - -3.6 °F 66% 30.20 in 10.0 mi Calm Calm - N/A   Clear
1:35 AM 8.4 °F -1.6 °F -2.4 °F 62% 30.20 in 10.0 mi West 5.8 mph - N/A   Clear
1:55 AM 5.2 °F -5.4 °F -4.7 °F 64% 30.20 in 10.0 mi West 5.8 mph - N/A   Clear
2:15 AM 5.4 °F - -4.5 °F 64% 30.20 in 10.0 mi Calm Calm - N/A   Clear
2:35 AM 1.6 °F - -6.2 °F 70% 30.20 in 10.0 mi Calm Calm - N/A   Clear
2:55 AM 1.9 °F - -5.1 °F 72% 30.21 in 10.0 mi Calm Calm - N/A   Clear
3:15 AM 3.2 °F -4.2 °F -4.0 °F 72% 30.20 in 10.0 mi NNW 3.5 mph - N/A   Clear
3:35 AM 4.6 °F -6.0 °F -3.8 °F 68% 30.20 in 10.0 mi NNW 5.8 mph - N/A   Clear
3:55 AM 3.2 °F - -4.4 °F 71% 30.20 in 10.0 mi Calm Calm - N/A   Clear
4:15 AM 4.6 °F -2.5 °F -2.4 °F 73% 30.20 in 10.0 mi WNW 3.5 mph - N/A   Clear
4:35 AM 2.8 °F - -4.0 °F 73% 30.19 in 10.0 mi Calm Calm - N/A   Clear
4:55 AM 4.8 °F -7.1 °F -3.5 °F 69% 30.19 in 10.0 mi NNW 6.9 mph - N/A   Clear
5:15 AM 5.0 °F -4.1 °F -3.6 °F 68% 30.19 in 10.0 mi NNW 4.6 mph - N/A   Clear
5:35 AM 5.0 °F -2.1 °F -3.8 °F 67% 30.20 in 10.0 mi NNW 3.5 mph - N/A   Clear
5:55 AM 5.7 °F -7.2 °F -3.3 °F 66% 30.20 in 10.0 mi NNW 8.1 mph - N/A   Clear
6:15 AM 5.7 °F -6.1 °F -3.3 °F 66% 30.20 in 10.0 mi North 6.9 mph - N/A   Clear
6:35 AM 3.7 °F - -3.8 °F 71% 30.20 in 10.0 mi Calm Calm - N/A   Clear
6:55 AM 5.0 °F -2.1 °F -3.1 °F 69% 30.21 in 10.0 mi NW 3.5 mph - N/A   Clear
7:15 AM 3.7 °F - -3.8 °F 71% 30.22 in 10.0 mi Calm Calm - N/A   Clear
7:35 AM 3.9 °F -8.2 °F -3.3 °F 72% 30.23 in 10.0 mi NW 6.9 mph - N/A   Clear
7:55 AM 4.5 °F -10.7 °F -4.2 °F 67% 30.23 in 10.0 mi NNW 10.4 mph - N/A   Clear
8:15 AM 5.5 °F -3.4 °F -3.1 °F 68% 30.24 in 10.0 mi WSW 4.6 mph - N/A   Clear
8:35 AM 7.9 °F -0.7 °F -1.8 °F 65% 30.25 in 10.0 mi NNW 4.6 mph - N/A   Clear
8:55 AM 6.8 °F - -2.9 °F 64% 30.25 in 10.0 mi Calm Calm - N/A   Clear
9:15 AM 7.5 °F -2.6 °F -2.2 °F 65% 30.24 in 10.0 mi NNW 5.8 mph - N/A   Clear
9:35 AM 8.6 °F 0.1 °F -2.2 °F 62% 30.24 in 10.0 mi NNW 4.6 mph - N/A   Clear
9:55 AM 10.4 °F - -1.3 °F 59% 30.23 in 10.0 mi Calm Calm - N/A   Clear
10:15 AM 12.2 °F - -0.2 °F 58% 30.22 in 10.0 mi Calm Calm - N/A   Clear
10:35 AM 16.2 °F - 0.5 °F 50% 30.21 in 10.0 mi Calm Calm - N/A   Clear
10:55 AM 18.3 °F - 1.6 °F 48% 30.20 in 10.0 mi Calm Calm - N/A   Clear
11:15 AM 21.0 °F - 2.8 °F 45% 30.19 in 10.0 mi Calm Calm - N/A   Clear
11:35 AM 22.3 °F 13.0 °F 2.5 °F 42% 30.17 in 10.0 mi North 8.1 mph - N/A   Clear
11:55 AM 23.4 °F 15.2 °F 1.2 °F 38% 30.16 in 10.0 mi NNW 6.9 mph - N/A   Clear
12:15 PM 25.2 °F 18.3 °F 3.7 °F 40% 30.15 in 10.0 mi North 5.8 mph - N/A   Clear
12:35 PM 25.0 °F 18.1 °F 3.0 °F 39% 30.14 in 10.0 mi North 5.8 mph - N/A   Clear
12:55 PM 25.0 °F 17.1 °F 3.0 °F 39% 30.13 in 10.0 mi North 6.9 mph - N/A   Clear
1:15 PM 26.1 °F 21.9 °F 2.5 °F 36% 30.13 in 10.0 mi NNE 3.5 mph - N/A   Clear
1:35 PM 26.4 °F 22.4 °F 2.7 °F 36% 30.13 in 10.0 mi North 3.5 mph - N/A   Clear
1:55 PM 27.1 °F 23.2 °F 0.1 °F 31% 30.13 in 10.0 mi WNW 3.5 mph - N/A   Clear
2:15 PM 27.5 °F - -1.1 °F 29% 30.13 in 10.0 mi Calm Calm - N/A   Clear
2:35 PM 28.4 °F 20.4 °F 0.5 °F 30% 30.13 in 10.0 mi South 8.1 mph - N/A   Clear
2:55 PM 27.9 °F 20.6 °F 0.9 °F 31% 30.13 in 10.0 mi South 6.9 mph - N/A   Clear
3:15 PM 28.2 °F 20.2 °F 0.3 °F 30% 30.13 in 10.0 mi SW 8.1 mph - N/A   Clear
3:35 PM 28.4 °F 22.2 °F -0.6 °F 29% 30.14 in 10.0 mi West 5.8 mph - N/A   Clear
3:55 PM 27.9 °F 20.6 °F -1.8 °F 28% 30.14 in 10.0 mi WNW 6.9 mph - N/A   Clear
4:15 PM 26.6 °F 20.0 °F -2.4 °F 29% 30.15 in 10.0 mi NW 5.8 mph - N/A   Clear
4:35 PM 24.3 °F 13.9 °F 1.4 °F 37% 30.15 in 10.0 mi SW 10.4 mph - N/A   Clear
4:55 PM 21.9 °F 11.0 °F 3.4 °F 45% 30.15 in 10.0 mi WSW 10.4 mph - N/A   Clear
5:15 PM 19.2 °F 7.0 °F 3.2 °F 50% 30.16 in 7.0 mi WSW 11.5 mph 16.1 mph N/A   Clear
5:35 PM 18.1 °F 7.1 °F 2.5 °F 51% 30.17 in 5.0 mi West 9.2 mph - N/A   Clear
5:55 PM 17.1 °F 5.0 °F 1.9 °F 52% 30.19 in 10.0 mi WSW 10.4 mph - N/A   Clear
6:15 PM 15.4 °F 3.0 °F 1.6 °F 54% 30.19 in 10.0 mi West 10.4 mph - N/A   Clear
6:55 PM 13.6 °F 1.6 °F -0.2 °F 54% 30.21 in 10.0 mi West 9.2 mph - N/A   Clear
7:15 PM 13.5 °F 3.3 °F -0.9 °F 53% 30.21 in 10.0 mi West 6.9 mph - N/A   Clear
7:35 PM 12.9 °F 2.6 °F -1.7 °F 52% 30.21 in 10.0 mi West 6.9 mph - N/A   Clear
7:55 PM 11.5 °F -0.2 °F -3.1 °F 52% 30.22 in 10.0 mi WSW 8.1 mph - N/A   Clear
8:15 PM 10.0 °F -0.9 °F -4.2 °F 53% 30.22 in 10.0 mi SW 6.9 mph - N/A   Clear
8:35 PM 10.4 °F 0.8 °F -3.6 °F 53% 30.23 in 10.0 mi West 5.8 mph - N/A   Clear
8:55 PM 8.6 °F -4.7 °F -5.1 °F 54% 30.24 in 10.0 mi West 9.2 mph - N/A   Clear
9:15 PM 8.4 °F -2.8 °F -5.4 °F 53% 30.25 in 10.0 mi West 6.9 mph - N/A   Clear
9:35 PM 6.3 °F -5.4 °F -5.8 °F 58% 30.25 in 10.0 mi West 6.9 mph - N/A   Clear
9:55 PM 6.6 °F -7.1 °F -6.5 °F 55% 30.27 in 10.0 mi West 9.2 mph - N/A   Clear
10:15 PM 7.2 °F - -5.8 °F 55% 30.28 in 10.0 mi Calm Calm - N/A   Clear
10:35 PM 6.1 °F -5.6 °F -6.0 °F 58% 30.29 in 10.0 mi WSW 6.9 mph - N/A   Scattered Clouds
10:55 PM 5.9 °F -5.8 °F -6.7 °F 56% 30.29 in 10.0 mi WSW 6.9 mph - N/A   Mostly Cloudy
11:15 PM 5.9 °F -5.8 °F -6.5 °F 57% 30.29 in 10.0 mi West 6.9 mph - N/A   Scattered Clouds
11:35 PM 4.6 °F -6.0 °F -6.7 °F 59% 30.30 in 10.0 mi WSW 5.8 mph - N/A   Clear
11:55 PM 3.0 °F -10.5 °F -7.1 °F 63% 30.30 in 10.0 mi WSW 8.1 mph - N/A   Clear